TimePDT,TemperatureF,Dew PointF,Humidity,Sea Level PressureIn,VisibilityMPH,Wind Direction,Wind SpeedMPH,Gust SpeedMPH,PrecipitationIn,Events,Conditions,WindDirDegrees,DateUTC
12:58 AM,45.0,39.4,81,30.01,10.0,Calm,Calm,-,N/A,,Mostly Cloudy,0,2013-09-27 07:58:00
1:58 AM,45.0,40.8,85,30.03,10.0,SSW,9.2,-,N/A,,Overcast,200,2013-09-27 08:58:00
2:58 AM,43.7,39.7,86,30.01,10.0,South,4.6,-,N/A,,Clear,170,2013-09-27 09:58:00
3:58 AM,41.4,40.3,96,30.02,10.0,SSE,4.6,-,N/A,,Clear,160,2013-09-27 10:58:00
4:49 AM,41.0,41.0,100,30.00,10.0,SE,6.9,-,N/A,,Overcast,130,2013-09-27 11:49:00
4:58 AM,41.7,41.0,97,30.01,10.0,SE,4.6,-,0.00,,Mostly Cloudy,140,2013-09-27 11:58:00
5:01 AM,41.0,41.0,100,29.99,10.0,SE,4.6,-,N/A,,Mostly Cloudy,130,2013-09-27 12:01:00
5:58 AM,41.4,40.3,96,30.02,10.0,SSE,6.9,-,0.00,,Mostly Cloudy,160,2013-09-27 12:58:00
6:25 AM,41.0,39.2,93,30.00,10.0,Variable,2.3,-,N/A,,Mostly Cloudy,0,2013-09-27 13:25:00
6:58 AM,40.8,39.0,93,30.04,10.0,South,13.8,18.4,0.00,,Partly Cloudy,170,2013-09-27 13:58:00
7:28 AM,41.0,39.2,93,30.01,10.0,South,12.7,-,N/A,,Clear,180,2013-09-27 14:28:00
7:58 AM,42.8,39.7,89,30.04,10.0,South,11.5,-,0.00,,Mostly Cloudy,180,2013-09-27 14:58:00
8:58 AM,45.3,39.7,81,30.04,10.0,South,15.0,-,N/A,,Overcast,180,2013-09-27 15:58:00
9:58 AM,48.2,40.3,74,30.03,10.0,South,13.8,-,N/A,,Mostly Cloudy,190,2013-09-27 16:58:00
10:58 AM,49.8,38.7,65,30.04,10.0,SSW,15.0,21.9,N/A,,Overcast,200,2013-09-27 17:58:00
11:53 AM,50.0,39.2,66,30.00,10.0,SSW,16.1,-,N/A,,Mostly Cloudy,200,2013-09-27 18:53:00
11:58 AM,49.8,38.7,65,30.02,10.0,SSW,17.3,-,N/A,,Mostly Cloudy,200,2013-09-27 18:58:00
12:04 PM,50.0,39.2,66,30.00,10.0,SW,18.4,-,N/A,Rain,Light Rain,220,2013-09-27 19:04:00
12:23 PM,50.0,37.4,62,30.01,10.0,SW,18.4,25.3,N/A,,Overcast,220,2013-09-27 19:23:00
12:31 PM,50.0,35.6,58,30.00,10.0,WSW,16.1,-,N/A,,Overcast,240,2013-09-27 19:31:00
12:58 PM,50.7,36.1,57,30.03,10.0,SW,18.4,-,0.00,,Overcast,220,2013-09-27 19:58:00
1:08 PM,50.0,37.4,62,30.00,10.0,SSW,19.6,-,N/A,Rain,Light Rain,210,2013-09-27 20:08:00
1:18 PM,50.0,37.4,62,30.00,10.0,SW,17.3,-,N/A,,Overcast,220,2013-09-27 20:18:00
1:21 PM,50.0,37.4,62,30.00,10.0,SW,19.6,25.3,N/A,Rain,Light Rain,220,2013-09-27 20:21:00
1:53 PM,50.0,39.2,66,30.00,10.0,SW,17.3,-,N/A,,Overcast,220,2013-09-27 20:53:00
1:58 PM,49.1,38.5,67,30.03,10.0,SW,20.7,-,0.00,,Overcast,220,2013-09-27 20:58:00
2:13 PM,48.2,39.2,71,30.00,10.0,SSW,18.4,-,N/A,Rain,Light Rain,200,2013-09-27 21:13:00
2:22 PM,48.2,39.2,71,29.99,10.0,SSW,19.6,-,N/A,,Overcast,210,2013-09-27 21:22:00
2:23 PM,48.2,39.2,71,29.99,10.0,SSW,18.4,-,N/A,,Overcast,210,2013-09-27 21:23:00
2:55 PM,46.4,39.2,76,29.99,10.0,SSW,16.1,21.9,N/A,,Overcast,200,2013-09-27 21:55:00
2:58 PM,47.3,38.8,72,30.03,10.0,SSW,13.8,-,0.00,,Overcast,210,2013-09-27 21:58:00
3:55 PM,48.2,39.2,71,29.97,10.0,South,11.5,-,N/A,,Overcast,170,2013-09-27 22:55:00
3:58 PM,48.2,39.6,72,30.01,10.0,South,12.7,-,N/A,,Overcast,190,2013-09-27 22:58:00
4:01 PM,48.2,39.2,71,29.98,10.0,South,12.7,-,N/A,,Overcast,190,2013-09-27 23:01:00
4:13 PM,48.2,39.2,71,29.97,10.0,South,12.7,-,N/A,,Overcast,190,2013-09-27 23:13:00
4:58 PM,48.6,38.3,68,30.01,10.0,South,11.5,-,N/A,,Mostly Cloudy,180,2013-09-27 23:58:00
5:58 PM,48.9,39.0,69,30.00,10.0,South,8.1,-,N/A,,Overcast,170,2013-09-28 00:58:00
6:58 PM,49.1,39.4,69,29.98,10.0,SSE,5.8,-,N/A,,Overcast,150,2013-09-28 01:58:00
7:35 PM,50.0,39.2,66,29.95,10.0,SSW,16.1,19.6,N/A,,Overcast,200,2013-09-28 02:35:00
7:58 PM,48.2,40.5,75,29.98,10.0,South,15.0,20.7,N/A,,Overcast,190,2013-09-28 02:58:00
8:08 PM,48.2,41.0,76,29.95,10.0,SSW,13.8,-,N/A,Rain,Light Rain,200,2013-09-28 03:08:00
8:18 PM,48.2,41.0,76,29.95,10.0,South,10.4,-,N/A,Rain,Light Rain,190,2013-09-28 03:18:00
8:21 PM,48.2,41.0,76,29.95,10.0,South,11.5,-,N/A,,Overcast,190,2013-09-28 03:21:00
8:39 PM,46.4,41.0,81,29.95,10.0,South,10.4,-,N/A,Rain,Light Rain,180,2013-09-28 03:39:00
8:57 PM,46.4,42.8,87,29.95,10.0,South,9.2,-,N/A,,Overcast,180,2013-09-28 03:57:00
8:58 PM,46.2,43.0,88,29.98,10.0,South,8.1,-,0.00,,Overcast,180,2013-09-28 03:58:00
9:00 PM,46.4,42.8,87,29.95,10.0,South,8.1,-,N/A,,Overcast,180,2013-09-28 04:00:00
9:30 PM,46.4,42.8,87,29.95,10.0,South,8.1,-,N/A,,Overcast,170,2013-09-28 04:30:00
9:55 PM,46.4,42.8,87,29.94,10.0,South,11.5,-,N/A,,Overcast,180,2013-09-28 04:55:00
9:58 PM,46.2,43.2,89,29.96,10.0,South,10.4,-,0.00,,Overcast,180,2013-09-28 04:58:00
10:17 PM,46.4,42.8,87,29.94,10.0,South,10.4,-,N/A,,Overcast,170,2013-09-28 05:17:00
10:39 PM,46.4,44.6,93,29.93,10.0,South,10.4,-,N/A,,Overcast,190,2013-09-28 05:39:00
10:58 PM,46.2,43.7,91,29.96,10.0,South,8.1,-,N/A,,Overcast,170,2013-09-28 05:58:00
11:19 PM,46.4,44.6,93,29.92,10.0,South,8.1,-,N/A,,Overcast,170,2013-09-28 06:19:00
11:25 PM,46.4,44.6,93,29.92,10.0,South,8.1,-,N/A,,Overcast,170,2013-09-28 06:25:00
11:58 PM,46.6,44.2,92,29.94,10.0,SSE,8.1,-,N/A,,Overcast,160,2013-09-28 06:58:00